Regional Weather Roundup
Issued by NWS Grand Forks, ND

Home | Current Version | Previous Version | Text Only | Print | Product List | Glossary On
Versions: 1 2 3 4 5 6 7 8 9 10 11 12 13 14 15 16 17 18 19 20 21 22 23 24 25 26 27 28 29 30 31 32 33 34 35 36 37 38 39 40 41 42 43 44 45 46 47 48 49 50
000
ASUS43 KFGF 240131
RWRFGF
PRAIRIE TO PINES  WEATHER ROUNDUP
NATIONAL WEATHER SERVICE EASTERN NORTH DAKOTA/GRAND FORKS ND
800 PM CDT WED AUG 23 2017

 **SATELLITE DATA USED TO AUGMENT SKY COVER AT AUTOMATED STATIONS**
 *****  WEATHER ACROSS EASTERN NORTH DAKOTA  *****

CITY           SKY/WX    TMP DP  RH WIND       PRES   REMARKS
GRAND FORKS    MOCLDY    61  52  72 E15G24    30.02F THUNDER
GRAND FRKS AFB MOCLDY    61  50  67 E8        30.05R
DEVILS LAKE    FAIR      63  53  70 E21G32    30.00R
FARGO          MOCLDY    72  52  49 SE6       29.99R
WAHPETON ARPT  FAIR      68  54  60 E3        30.00R
$$

 ***** WEATHER ACROSS CENTRAL AND WESTERN NORTH DAKOTA  *****

CITY           SKY/WX    TMP DP  RH WIND       PRES   REMARKS
BISMARCK       FAIR      76  61  59 SE6       29.94S
MINOT          FAIR      76  51  41 NE20G25   29.92R
JAMESTOWN      FAIR      68  57  68 SE7       29.97R
MINOT AFB      FAIR      76  51  41 E15       29.92R
GARRISON         N/A     75  59  57 S8        29.91F
WILLISTON      FAIR      89  46  22 CALM      29.89F
DICKINSON      FAIR      78  53  41 E14       29.93S
HETTINGER      FAIR      79  53  40 E10       29.96F
$$

 *****  OTHER AIRPORT OBSERVATIONS IN OUR AREA  *****

CITY           SKY/WX    TMP DP  RH WIND       PRES   REMARKS
WALHALLA       FAIR      55  55 100 E5        30.07F
GRAFTON AIRPOR MOCLDY    55  55 100 E8        30.08R
VALLEY CITY AR   N/A     70  55  60 E9        30.01R
CANDO          CLOUDY    61  52  72 E16G23    30.03R
CAVALIER APRT  MOCLDY    55  54  94 E5        30.07R
GWINNER        CLEAR     66  61  82 CALM      29.98R
SHEYENNE NWR     N/A     70  58  65 E6        29.95S
ROLLA          FAIR      57  50  77 E9G16     30.05R
 ***** THE ABOVE OBSERVATIONS ARE NON NWS ARE NOT QUALITY
       CONTROLLED AND MAY MIS-REPORT RAIN FOR SNOW...
$$

  *****  WEATHER ACROSS NORTHERN MINNESOTA  *****

CITY           SKY/WX    TMP DP  RH WIND       PRES   REMARKS
FLAG ISLAND    FAIR      57  48  72 CALM      30.09S
WARROAD        FAIR      52  48  87 CALM      30.10F
ROSEAU         FAIR      52  48  87 CALM      30.10S
HALLOCK        MOCLDY    55  54  94 E6        30.07S
THF RVR FALLS  MOCLDY    55  54  96 E10       30.08F
BAUDETTE       LGT RAIN  54  52  93 NW3       30.09F
WASKISH        MOCLDY    52  52 100 E3        30.09F
CROOKSTON      RAIN      55  54  94 SE12        N/A
STEPHEN NDAWN    N/A     55  54  94 E7          N/A
GREENBUSH NDAW   N/A     55  52  88 NE3         N/A
$$
  *****  WEATHER ACROSS CENTRAL AND WEST MINNESOTA  *****

CITY           SKY/WX    TMP DP  RH WIND       PRES   REMARKS
FOSSTON        RAIN      54  50  87 CALM      30.08F
BEMIDJI        CLOUDY    54  54 100 E5        30.09F
PARK RAPIDS    CLOUDY    63  51  65 NE14      30.06R
ELBOW LAKE     FAIR      68  56  65 SE3       30.01S
WADENA         MOCLDY    64  54  68 NE8       30.04R
DETROIT LAKES  FAIR      68  52  56 E6        30.05R
MOORHEAD       FAIR      72  54  53 E5        30.01R
FERGUS FALLS   FAIR      70  54  56 E3        30.01R
MORRIS MN      FAIR      64  57  77 SE7       30.00R
STAPLES        CLOUDY    64  52  63 NE6       30.05R
$$
  *****  WEATHER ELSEWHERE ACROSS MINNESOTA  *****

CITY           SKY/WX    TMP DP  RH WIND       PRES   REMARKS
DULUTH         CLOUDY    60  50  69 N3        30.06S
INTRNTL FALLS  MOCLDY    57  50  77 NW5       30.08R
ELY            FAIR      55  45  67 CALM      30.08R
CLOQUET        RAIN      57  50  77 CALM      30.08R
WHEATON        FAIR      63  55  77 E7        30.00R
BRAINERD       CLOUDY    63  53  70 NE7       30.05S
HIBBING        LGT RAIN  56  51  84 W6        30.07S
ALEXANDRIA     FAIR      69  52  54 SE5       30.03S
SAINT CLOUD    FAIR      67  55  65 E3        30.03S
MINNEAPOLIS    FAIR      72  49  44 NE6       30.02S
$$

  *****  WEATHER ACROSS SOUTH DAKOTA  *****

CITY           SKY/WX    TMP DP  RH WIND       PRES   REMARKS
SIOUX FALLS    MOCLDY    72  62  71 SE8       30.00S
BROOKINGS      MOCLDY    71  60  68 SE9       30.00S
WATERTOWN      FAIR      70  59  68 SE8       29.98F
HURON          FAIR      74  62  66 SE10      29.92F
SISSETON         N/A     69  58  67 SE6       29.96S
ABERDEEN       FAIR      74  62  66 E7        29.94F
MITCHELL       FAIR      76  62  62 SE12      29.93F
PIERRE         FAIR      80  64  58 NE8       29.87S
MOBRIDGE       FAIR      76  64  66 E9        29.90S
RAPID CITY     FAIR      84  52  33 NE6       29.94F
$$

  *****  SOME WEATHER IN NEARBY STATES *****

CITY           SKY/WX    TMP DP  RH WIND       PRES   REMARKS
GLASGOW MT     FAIR      89  40  17 E6        29.86F
GREAT FALLS MT FAIR      90  32  12 CALM      29.90F
CHEYENNE WY    CLOUDY    73  44  35 NW3       30.18S
SCOTTSBLUFF NE FAIR      79  48  33 SW12      30.02R
OMAHA NE       FAIR      76  55  48 S9        30.03S
DES MOINES IA  FAIR      75  50  41 CALM      30.03F
DAVENPORT IA   FAIR      62  58  86 CALM      30.05S
CHICAGO IL     FAIR      70  54  56 E7        30.01R
EAU CLAIRE WI  FAIR      64  51  62 N3        30.04R
LA CROSSE WI   FAIR      68  53  58 N3        30.02S
$$

  *****  SOME NATIONAL WEATHER *****

CITY           SKY/WX    TMP DP  RH WIND       PRES   REMARKS
LA GUARDIA NY  FAIR      77  55  46 NW8       29.86R
RALEIGH NC     MOCLDY    76  74  93 NE5       29.85R
ATLANTA GA     FAIR      82  65  56 NW7       29.90R
NEW ORLEANS LA MOCLDY    82  77  84 SW5       29.89R HX  90
OKLAHOMA CITY  FAIR      79  63  57 NE10      29.99S
ALBUQUERQUE NM CLOUDY    81  43  26 E9        30.12S
SALT LAKE CITY FAIR      89  45  21 VRB3      30.01F
LOS ANGELES CA PTSUNNY   69  62  78 W14       29.90S
BOISE ID       FAIR      84  50  30 E24       29.96R
SEATTLE WA     PTSUNNY   74  58  57 NW5       29.97F
$$

*** WEATHER ACROSS MANITOBA...SASKATCHEWAN AND ONTARIO ***
                ***ONTARIO***

CITY           SKY/WX    TMP DP  RH WIND       PRES   REMARKS
GERALDTON      PTCLDY    54  43  66 NW2       30.03R
THUNDER BAY    PTCLDY    52  45  76 NW2       30.05R
SIOUX LOOKOUT  PTCLDY    46  43  87 CALM      30.08S
TORONTO        PTCLDY    63  48  59 NW13      29.92R
BIG TROUT LK   CLEAR     54  43  66 N3        30.09R
PICKLE LAKE    PTCLDY    55  32  41 NE8       30.08R
DRYDEN         CLEAR     57  43  58 W6        30.09S
KENORA         MOCLDY    55  43  62 N3        30.11S
$$
                *** MANITOBA***

CITY           SKY/WX    TMP DP  RH WIND       PRES   REMARKS
BRANDON        PTCLDY    59  52  77 E13G18    30.07S
DAUPHIN        CLEAR     61  52  72 E7        30.09S
ISLAND LAKE    MOCLDY    59  41  51 N6        30.14
PILOT MOUND      N/A     55  50  82 E14G20      N/A
THE PAS        PTCLDY    66  54  63 SE7       30.09S
THOMPSON       PTCLDY    59  41  51 VRB2      30.13S
WINNIPEG       CLEAR     57  52  82 NE8       30.11S
LYNN LAKE      CLEAR     64  50  59 SE8       30.09F
CHURCHILL      PTCLDY    55  41  58 E3        30.13S
GILLAM         CLEAR     59  41  51 N3        30.13S
$$
                ***SASKATCHEWAN***

CITY           SKY/WX    TMP DP  RH WIND       PRES   REMARKS
ESTEVAN        PTCLDY    72  52  49 E17       29.96R
KINDERSLEY     MOSUNNY   79  46  31 E18G29    29.88F
LLOYDMINSTER   PTSUNNY   72  57  60 E12G18    29.92S
PRINCE ALBERT  PTCLDY    70  52  52 E7        30.02F
REGINA         PTCLDY    77  50  38 E17       29.95S
YORKTON        CLEAR     64  52  63 E13G18    30.06R
N. BATTLEFORD  MOSUNNY   73  50  43 SE18      29.96S
LA RONGE       PTCLDY    70  52  52 SE8       30.01F
SASKATOON      PTSUNNY   72  52  49 E13G21    29.98S
SWIFT CURRENT  SUNNY     81  43  26 E18G26    29.90F
$$
NOTE: THESE ARE AUTOMATED STATIONS WITH LIMITED QUALITY CONTROL
      "FAIR" INDICATES FEW OR NO CLOUDS BELOW 12,000 FEET WITH NO
      SIGNIFICANT WEATHER AND/OR OBSTRUCTIONS TO VISIBILITY.
      SKY/WX - SKY CONDITION AND SIGNIFICANT WEATHER.
      TMP - AIR TEMPERATURE.    DP   - DEWPOINT TEMPERATURE.
      RH  - RELATIVE HUMIDITY.  PRES - PRESSURE.
      HX  - HEAT INDEX.         WCI  - WIND CHILL INDEX.
$




USA.gov is the U.S. government's official web portal to all federal, state and local government web resources and services.